Location: Dompnac
(44.5644°N, 4.1026°E)
Time: 11:20:33
(UTC+00:00)

Cosmos 1626 - Visible Passes

Search period start: 20 June 2021 00:00
Search period end: 30 June 2021 00:00
Orbit: 490 x 492 km, 82.5° (Epoch: 19 June)

Date Brightness Start Highest point End Pass type
(mag) Time Alt. Az. Time Alt. Az. Time Alt. Az.
20 Jun 3.6 21:30:06 10° SW 21:33:30 35° WNW 21:36:57 10° N visible
21 Jun 2.8 21:07:07 10° SSW 21:10:43 55° W 21:14:22 10° N visible
22 Jun 2.1 20:44:17 10° S 20:47:58 86° W 20:51:41 10° N visible
23 Jun 2.1 20:21:37 10° S 20:25:15 60° E 20:28:54 10° NNE visible
24 Jun 5.0 21:35:51 10° WSW 21:37:57 15° WNW 21:40:05 10° NW visible
25 Jun 4.7 21:12:14 10° WSW 21:15:05 21° WNW 21:17:57 10° NNW visible
26 Jun 4.1 20:48:57 10° SW 20:52:14 30° WNW 20:55:33 10° NNW visible
27 Jun 3.3 20:25:53 10° SSW 20:29:25 45° WNW 20:33:00 10° N visible
28 Jun 2.4 20:02:59 10° SSW 20:06:39 72° W 20:10:21 10° N visible
